This is the latest recevied weather packets stored in our database for station/object WA4OPQ-1. If no packets are shown the sender has not sent any weather packets the latest 10 day(s).
| Time | Temp. | Humidity | Pressure | Rain* | Wind** | Luminosity | Snow |
|---|---|---|---|---|---|---|---|
| 1787657934 | 18.89° C | 89% | 1016.5 hPa | 0 mm | 0 m/s | 8 W/m² | - |
| 1787657439 | 18.89° C | 89% | 1016.4 hPa | 0 mm | 0 m/s | 4 W/m² | - |
| 1787656849 | 18.89° C | 88% | 1016.3 hPa | 0 mm | 0 m/s | 0 W/m² | - |
| 1787656344 | 18.89° C | 88% | 1016.3 hPa | 0 mm | 0 m/s | 0 W/m² | - |
| 1787655754 | 18.89° C | 87% | 1015.9 hPa | 0 mm | 0 m/s | 0 W/m² | - |
| 1787655269 | 18.89° C | 86% | 1015.8 hPa | 0 mm | 0 m/s | 0 W/m² | - |
| 1787654701 | 18.89° C | 85% | 1015.7 hPa | 0 mm | 0 m/s | 0 W/m² | - |
| 1787654109 | 18.89° C | 85% | 1015.6 hPa | 0 mm | 0 m/s | 0 W/m² | - |
| 1787653609 | 18.89° C | 85% | 1015.7 hPa | 0 mm | 0 m/s | 0 W/m² | - |
| 1787653079 | 18.89° C | 85% | 1015.7 hPa | 0 mm | 0 m/s | 0 W/m² | - |
| 1787652589 | 18.89° C | 84% | 1015.5 hPa | 0 mm | 0 m/s | 0 W/m² | - |
| 1787652031 | 18.89° C | 84% | 1015.5 hPa | 0 mm | 0 m/s | 0 W/m² | - |
| 1787651449 | 18.89° C | 86% | 1015.2 hPa | 0 mm | 0 m/s | 0 W/m² | - |
| 1787650959 | 18.89° C | 86% | 1015.5 hPa | 0 mm | 0 m/s | 0 W/m² | - |
| 1787650439 | 18.89° C | 83% | 1015.1 hPa | 0 mm | 0 m/s | 0 W/m² | - |
| 1787649904 | 18.89° C | 83% | 1014.9 hPa | 0 mm | 0 m/s | 0 W/m² | - |
| 1787649373 | 18.89° C | 83% | 1015 hPa | 0 mm | 0 m/s | 0 W/m² | - |
| 1787648889 | 18.89° C | 86% | 1015 hPa | 0 mm | 0 m/s | 0 W/m² | - |
| 1787648401 | 18.89° C | 85% | 1015.1 hPa | 0 mm | 0 m/s | 0 W/m² | - |
| 1787647854 | 18.89° C | 88% | 1015.2 hPa | 0 mm | 0 m/s | 0 W/m² | - |
| 1787647341 | 18.89° C | 88% | 1014.9 hPa | 0 mm | 0 m/s | 0 W/m² | - |
| 1787646844 | 19.44° C | 88% | 1014.9 hPa | 0 mm | 0 m/s | 0 W/m² | - |
| 1787646314 | 19.44° C | 81% | 1014.9 hPa | 0 mm | 0 m/s | 0 W/m² | - |
| 1787645814 | 19.44° C | 84% | 1015 hPa | 0 mm | 0 m/s | 0 W/m² | - |
| 1787645299 | 18.89° C | 81% | 1015 hPa | 0 mm | 0 m/s | 0 W/m² | - |
* Rain latest hour (hover to see other rain measurements)
** Current wind speed in m/s (hover to see current wind gust speed)